Wind_Speed
23 24 25 25 25 25 25 26 27 27 27 26 28 22 20 19 21 15 11 9 9 7 5 5 3 2 1 3 4 1 1 3 9 18 13 6 3 4 3 2 1 3 2 3 4 5 5
25 25 25 25 26 25 25 26 27 27 28 28 28 27 21 19 20 19 13 11 9 8 6 4 2 3 4 5 5 7 2 2 7 18 10 6 4 4 2 2 3 1 3 5 6 8 6
25 25 26 27 27 27 27 27 27 27 28 27 27 28 25 18 18 22 16 12 10 10 7 4 3 4 2 9 3 2 5 4 8 10 6 8 6 3 4 1 1 2 5 8 8 7 7
25 26 27 27 28 27 28 29 29 30 29 28 28 28 26 20 16 20 19 15 10 10 10 6 5 4 5 3 11 16 5 4 5 7 7 10 7 3 2 1 4 2 2 3 3 4 6
26 25 25 28 28 29 29 30 31 30 29 28 26 27 24 24 15 17 23 17 12 8 6 8 5 4 6 1 4 7 12 7 7 6 6 9 6 4 2 2 2 3 4 5 5 4 2
23 24 24 27 29 30 31 31 32 30 28 28 29 27 24 24 18 11 23 19 14 10 9 6 3 1 3 2 4 8 10 11 4 6 3 3 3 3 3 5 5 4 4 5 5 2 3
26 26 28 30 28 28 31 33 33 31 27 27 29 26 23 24 22 13 28 19 6 2 6 7 5 2 2 4 7 4 10 8 4 4 5 2 5 10 12 8 4 1 4 7 5 10 11
29 29 28 29 28 31 29 30 32 30 29 29 28 25 22 22 26 21 38 6 10 11 5 10 3 4 5 1 4 2 13 5 5 4 5 3 10 9 2 4 8 10 15 17 11 7 10
29 29 31 31 31 31 30 30 31 30 28 28 25 23 21 22 26 20 31 15 27 17 5 2 6 5 4 3 2 8 8 4 4 5 7 5 4 2 10 7 9 13 16 15 17 9 14
30 31 31 31 31 31 30 31 30 30 24 28 24 23 26 22 16 11 21 24 22 15 4 4 4 5 7 5 4 8 13 5 2 10 7 9 9 6 4 6 8 15 8 11 13 6 8
30 31 31 31 31 31 30 30 29 29 28 27 27 29 29 20 14 4 13 33 27 4 2 4 4 6 6 11 5 0 6 3 7 6 5 3 4 3 10 8 7 6 5 7 9 9 8
31 33 33 32 31 31 29 30 30 30 28 27 33 33 21 14 17 16 27 29 9 5 6 5 5 7 8 4 3 4 8 0 3 5 6 5 1 4 6 5 11 1 3 6 3 6 10
33 32 32 33 31 31 29 30 31 32 31 35 41 36 25 16 7 21 31 11 4 3 1 8 6 8 9 6 5 6 9 9 5 4 4 3 14 5 4 3 2 6 3 3 5 7 8
33 32 34 32 32 31 29 31 32 33 36 38 37 26 18 18 22 7 26 4 4 5 3 5 10 10 5 8 5 7 10 7 10 3 2 4 4 10 8 14 6 9 9 5 5 5 5
34 33 33 32 32 30 29 31 33 35 38 44 23 5 7 18 18 12 9 3 6 6 8 10 11 5 3 3 2 4 7 5 9 13 6 3 5 2 6 4 9 4 10 11 6 11 5
32 33 33 32 33 30 30 31 31 35 37 35 19 2 3 16 13 4 3 6 2 4 11 9 5 4 9 9 7 8 7 4 6 12 10 2 5 4 1 4 6 7 1 3 5 5 6
34 33 33 32 32 30 30 31 31 34 36 31 11 1 8 9 15 3 2 2 5 3 5 4 4 5 6 6 8 6 4 3 6 5 13 5 5 1 2 10 12 8 5 6 2 4 4
32 32 32 31 30 31 30 31 30 35 38 12 2 2 14 18 6 2 1 6 4 3 3 3 4 5 4 6 5 5 5 5 6 8 9 8 3 6 13 8 14 16 13 17 8 6 5
32 32 32 31 31 29 30 31 32 36 35 20 1 1 12 11 3 3 4 4 4 3 2 2 3 3 3 5 4 6 4 5 8 9 10 8 5 4 6 1 4 9 16 16 14 5 15
32 31 31 32 30 29 32 31 33 36 38 14 1 1 3 2 2 5 4 3 5 3 2 3 4 5 4 3 4 3 4 3 11 8 8 11 5 8 11 12 1 6 14 20 15 8 12
31 30 30 31 30 29 32 34 36 40 40 3 3 2 1 3 2 4 4 3 6 3 1 3 3 3 5 4 5 5 6 3 5 10 8 9 8 11 21 23 17 12 13 18 20 23 12
30 30 29 30 30 29 31 34 37 42 33 5 3 1 1 5 6 6 3 3 4 3 4 3 2 7 7 5 4 3 3 5 5 6 9 6 5 4 18 18 19 22 18 18 22 21 23
29 29 28 27 28 28 29 31 34 38 32 4 5 3 2 9 7 4 3 5 7 5 2 2 5 3 7 9 9 9 9 7 4 6 11 4 3 3 13 7 9 6 14 21 19 18 13
29 28 28 27 26 27 28 29 31 33 32 14 4 3 1 4 6 8 8 5 5 4 3 1 4 4 1 2 2 4 6 10 11 14 10 4 3 3 8 7 3 2 4 13 20 20 21
27 27 27 25 25 26 25 26 28 30 30 22 9 3 2 2 5 8 8 7 3 3 3 1 3 4 1 2 2 3 1 3 7 13 12 14 4 3 3 4 6 2 6 1 8 7 20
27 25 24 24 23 24 25 25 26 28 32 32 10 4 2 1 7 6 4 5 3 3 1 2 1 1 2 3 2 2 3 2 4 2 6 7 4 2 3 4 4 3 5 3 2 2 4
25 25 23 23 22 22 23 24 25 27 30 32 8 11 3 2 2 6 6 6 4 3 1 1 2 2 2 2 2 4 3 2 3 3 4 3 2 4 4 4 6 4 4 4 3 5 6
23 23 22 22 22 22 21 22 23 23 25 28 17 11 8 2 2 1 5 5 3 4 3 2 1 1 2 2 3 3 4 4 2 3 4 6 5 4 2 2 5 1 2 1 3 4 3
21 22 22 22 23 22 20 21 22 23 23 23 11 27 25 5 2 2 2 1 6 7 4 3 1 2 2 3 2 2 3 2 3 3 1 3 5 2 6 5 3 4 5 4 3 3 3
Wind_Direction
0 360 357 353 349 349 346 343 340 337 334 335 336 332 284 278 246 238 235 234 247 250 264 274 250 263 167 242 238 241 18 228 198 189 169 160 126 134 181 197 140 224 271 267 285 295 263
354 353 353 352 350 348 342 340 339 335 331 330 333 330 324 282 262 239 230 226 232 230 236 253 222 175 121 236 283 257 223 97 150 173 178 161 167 184 185 231 177 241 267 267 278 261 251
349 347 348 346 347 345 342 338 337 332 327 322 326 332 327 306 267 236 225 216 223 217 215 224 199 164 130 237 204 180 180 115 126 170 144 179 156 134 156 244 243 253 292 288 239 228 243
345 344 344 342 341 342 339 339 334 329 325 322 320 324 331 330 272 237 217 205 203 205 217 201 180 156 238 241 247 259 225 151 140 131 136 171 167 124 159 249 342 255 236 262 278 226 242
344 339 340 339 336 334 335 334 331 329 325 318 318 315 321 316 318 245 207 190 185 195 200 186 153 135 261 238 211 222 198 155 147 137 115 139 138 165 130 131 316 224 256 232 311 205 258
336 335 332 332 330 329 327 329 328 324 321 320 316 312 315 315 308 286 200 170 158 146 136 136 110 269 250 204 157 147 157 156 115 117 87 131 109 161 182 177 225 198 225 241 216 324 346
330 332 330 327 331 324 326 325 325 320 317 314 313 306 305 321 302 327 168 137 127 129 199 191 192 236 102 112 123 112 154 111 88 91 170 164 197 214 210 207 216 318 265 260 290 298 320
332 329 328 328 329 324 324 322 324 321 317 314 312 308 303 307 305 272 173 191 178 156 189 227 169 277 278 69 112 122 158 131 141 170 146 161 236 227 190 208 229 252 265 270 277 255 274
328 329 328 329 328 323 324 324 322 321 320 313 316 324 313 307 310 288 187 200 151 133 99 240 194 193 187 158 188 178 155 137 132 154 188 195 162 116 194 206 221 243 253 266 272 297 278
329 328 330 329 327 324 324 323 322 320 315 323 318 316 309 308 298 261 183 173 151 149 83 221 182 237 166 124 260 178 176 139 147 194 202 255 251 253 169 205 199 252 203 238 257 267 266
332 331 331 330 328 326 323 322 320 320 320 320 317 309 302 286 287 247 175 161 149 83 66 148 153 155 153 164 153 185 166 90 152 177 151 225 191 173 219 223 173 246 186 212 231 242 272
332 332 332 330 330 327 324 322 321 321 318 318 312 308 300 273 242 248 168 148 105 67 235 152 130 159 147 215 123 117 172 347 140 167 237 228 190 167 195 199 194 124 305 275 228 232 246
333 334 335 333 332 329 324 326 327 324 319 317 313 297 279 242 209 227 170 125 117 152 154 151 165 158 167 158 173 145 174 186 176 172 216 283 228 179 160 168 216 176 190 252 224 212 242
335 336 336 335 334 332 330 330 328 326 322 322 314 292 248 209 203 205 154 139 122 161 179 148 148 133 166 140 203 159 159 199 217 130 168 187 310 194 175 213 185 189 187 221 245 233 241
337 339 340 338 337 335 333 332 331 327 330 335 345 148 167 183 193 231 164 135 174 180 146 134 119 139 168 160 140 164 198 205 203 178 198 169 263 220 206 185 180 181 211 235 260 263 265
343 342 341 340 339 336 335 336 333 332 336 339 337 135 149 176 166 219 209 127 137 107 120 140 122 167 174 181 161 185 184 218 211 181 195 163 274 222 241 146 236 198 39 175 195 241 240
340 343 343 340 340 340 337 337 336 334 334 333 334 281 153 171 163 166 213 104 105 133 119 124 113 134 154 162 174 188 208 272 199 183 181 139 205 219 138 208 193 195 211 213 271 223 237
342 344 345 342 342 341 339 341 340 334 332 341 229 193 157 154 123 120 171 146 114 130 26 104 103 103 121 140 162 197 223 236 180 140 178 198 213 241 228 216 209 210 213 219 229 223 230
344 346 345 345 343 343 343 344 342 337 338 328 298 328 132 150 120 104 271 70 90 122 152 119 96 102 128 147 165 201 198 233 166 165 171 161 219 290 303 315 209 222 219 217 229 253 242
345 347 346 344 346 346 347 346 343 340 338 331 202 105 82 209 327 137 159 86 102 63 122 104 105 87 98 149 225 160 226 262 194 193 178 169 213 212 254 258 220 227 221 217 214 229 246
344 345 346 346 350 350 348 346 347 347 346 357 198 76 121 140 232 153 72 125 112 120 97 172 98 154 162 184 188 219 211 223 169 201 193 179 253 241 255 265 259 246 226 210 217 232 220
345 346 348 347 350 351 352 349 349 351 0 56 15 41 297 144 151 115 37 188 148 137 137 157 166 179 169 212 211 200 197 188 205 187 183 202 264 258 274 265 254 254 232 223 217 227 239
347 345 348 349 349 350 353 351 352 354 3 8 337 292 273 156 160 143 195 159 192 135 197 138 193 168 211 231 232 249 245 260 233 175 194 211 234 261 281 297 278 265 241 226 226 223 227
348 345 346 350 348 349 352 350 352 353 0 346 290 277 295 154 161 181 172 188 148 186 125 66 156 200 223 135 234 235 241 245 240 239 223 211 184 242 289 304 249 267 274 226 219 223 218
346 345 342 346 348 345 352 350 352 349 353 345 312 276 307 134 172 192 170 191 158 119 162 138 216 208 247 359 308 298 294 284 241 235 228 218 225 269 278 289 290 252 335 88 183 240 224
345 345 341 343 344 346 346 347 350 349 352 351 342 355 296 177 212 168 159 170 144 177 41 215 83 347 233 196 168 267 253 293 304 310 6 172 187 203 335 304 319 296 335 88 219 319 358
346 347 345 341 344 344 344 345 348 349 349 348 297 348 282 260 244 150 172 169 119 106 175 160 188 191 194 187 241 228 249 234 252 242 176 161 188 226 241 272 286 285 312 310 14 306 333
347 346 348 347 345 343 343 343 345 346 346 350 313 351 337 305 300 24 153 138 106 146 163 180 139 162 128 193 223 203 223 236 279 234 192 179 167 209 187 246 304 106 15 108 272 309 318
345 344 344 345 343 339 339 341 344 341 345 348 327 329 326 238 287 321 321 166 166 179 139 182 216 131 192 253 222 265 217 167 205 272 273 253 193 195 181 222 233 222 235 288 313 269 340
Height
818 814 811 808 804 800 797 793 789 786 783 779 775 770 770 769 769 770 771 772 774 775 775 776 775 776 778 779 775 774 773 773 774 777 780 783 788 790 794 794 793 795 790 787 785 785 784
819 814 810 807 803 800 796 792 789 784 780 776 772 768 764 764 764 767 768 769 771 773 774 775 775 775 777 780 773 773 773 773 773 776 779 782 785 788 792 793 794 791 791 788 786 784 781
817 813 809 805 802 798 794 790 786 782 779 774 770 766 761 759 760 762 764 766 768 771 772 774 774 775 777 774 770 772 772 773 774 776 779 782 785 788 791 794 791 790 793 788 783 780 780
816 812 808 804 799 796 792 788 784 780 775 771 767 763 758 755 755 756 759 763 765 769 771 773 774 775 774 768 769 771 773 773 775 777 778 781 785 789 791 791 791 791 791 792 780 777 775
814 809 805 801 797 793 789 785 781 776 772 768 764 760 756 752 751 752 754 759 763 767 769 772 774 775 773 767 767 767 771 772 775 778 780 782 785 789 792 795 798 794 794 793 785 774 773
810 806 802 798 794 790 785 781 776 772 768 764 760 757 754 750 747 748 748 755 761 766 769 772 774 777 768 764 765 766 769 771 775 778 783 785 788 792 792 792 795 795 796 793 787 778 777
807 802 798 794 790 786 781 776 772 767 763 760 756 752 750 746 742 742 742 752 762 768 767 764 765 765 762 763 764 767 768 772 776 781 787 787 789 787 785 788 789 793 794 793 789 781 783
805 801 795 789 785 781 777 772 767 763 759 755 751 747 745 743 738 736 736 736 736 739 760 759 764 765 763 762 765 768 769 774 778 785 788 790 787 782 786 788 789 791 791 786 781 782 781
803 796 791 786 781 776 772 767 762 759 754 750 747 743 741 739 734 727 727 731 729 734 753 755 757 761 762 764 763 766 769 773 778 786 784 784 780 778 782 787 787 784 785 784 784 785 779
799 793 787 783 777 772 767 762 758 753 749 745 742 740 738 735 733 723 723 729 730 734 774 755 757 755 758 760 763 760 764 769 777 777 777 778 775 779 786 786 787 785 783 785 786 792 786
795 790 783 778 773 768 763 758 753 748 742 739 737 733 733 733 727 720 720 724 726 734 781 751 755 753 754 758 757 762 763 765 777 779 783 776 779 782 781 778 785 781 778 780 783 786 788
792 786 780 775 769 764 759 753 748 743 738 734 730 726 724 723 722 719 722 722 725 759 774 747 749 748 754 757 754 761 763 764 767 773 774 776 775 776 777 777 778 778 784 784 781 782 772
790 783 778 772 766 761 755 749 743 737 732 726 721 714 715 716 715 715 723 722 740 755 729 740 741 741 743 755 753 755 761 766 766 774 776 768 766 770 773 778 778 777 787 778 773 769 755
787 780 774 769 763 758 752 746 740 733 726 716 705 698 701 706 710 712 715 726 733 723 731 726 728 738 743 745 748 752 759 762 763 768 772 788 777 764 767 765 768 774 776 769 761 759 748
784 777 771 766 760 755 750 743 737 729 720 707 695 693 697 701 709 713 716 716 715 718 719 723 733 740 746 743 745 749 753 753 749 758 765 776 768 764 764 763 760 773 769 753 767 763 758
782 775 769 763 758 752 747 741 734 726 717 708 701 698 697 700 705 715 721 711 712 710 713 718 727 733 739 745 752 750 752 749 746 747 750 761 768 762 760 762 760 758 761 763 764 755 743
780 773 767 761 756 750 745 739 732 725 716 708 704 700 700 700 708 716 713 710 710 712 710 717 724 734 736 743 748 751 750 748 747 752 753 759 769 763 758 755 745 756 757 758 756 748 736
777 771 765 760 754 748 743 737 731 722 712 705 703 698 702 701 709 721 715 706 705 714 712 714 716 722 730 736 743 743 751 748 744 748 756 753 757 755 751 738 734 732 733 739 743 745 743
774 770 764 759 753 747 741 735 729 721 712 704 700 693 703 702 705 710 715 704 707 714 714 714 718 719 725 735 743 747 749 738 743 745 749 750 754 759 747 736 732 734 726 726 728 732 730
772 768 763 758 752 746 740 735 727 718 709 702 702 695 704 708 707 711 709 709 712 712 715 714 720 722 727 729 733 741 745 735 738 739 739 743 746 749 719 710 731 724 722 725 731 724 712
772 767 762 757 752 747 739 733 726 716 704 699 698 701 704 707 710 705 705 708 712 716 712 715 720 718 724 728 730 735 737 734 738 735 737 744 740 736 722 713 721 717 712 715 717 709 713
771 766 761 756 751 747 742 734 727 717 706 704 704 701 707 710 706 706 712 713 713 714 712 716 718 716 720 724 722 726 727 730 725 733 733 735 729 728 714 709 708 704 702 701 701 702 698
771 765 760 756 751 746 742 738 730 721 712 711 710 708 706 703 706 710 717 710 714 709 711 712 717 717 720 719 718 717 719 719 722 723 729 734 733 723 697 690 696 683 683 690 692 690 695
769 764 759 755 751 747 742 736 733 728 722 717 712 710 704 704 705 708 710 711 708 708 713 714 716 719 715 714 715 715 715 716 719 717 718 721 731 726 703 698 676 670 667 667 670 673 679
767 763 758 754 751 746 744 739 734 729 725 719 713 711 705 702 703 707 708 708 710 711 712 714 715 716 715 715 718 711 710 712 709 709 713 712 716 714 703 687 678 662 664 667 669 668 668
765 761 757 753 750 746 742 739 734 729 723 716 711 710 708 703 702 696 703 708 713 714 714 713 714 714 715 718 714 711 709 703 709 704 712 707 710 712 702 692 680 667 669 665 662 659 659
763 759 756 752 749 746 742 738 733 727 723 719 713 712 709 699 695 696 702 706 704 709 711 714 714 716 714 712 711 709 708 706 709 700 702 706 710 705 703 695 683 671 669 666 664 668 666
762 758 755 751 748 744 742 739 734 732 728 722 714 712 712 699 695 693 695 701 706 709 710 713 714 714 714 716 711 709 713 710 707 702 699 700 703 706 696 697 693 672 672 672 667 667 667
761 757 753 749 747 744 741 738 735 730 727 723 716 710 706 703 697 695 694 694 696 698 704 709 708 708 709 708 710 703 699 709 709 701 697 697 690 688 693 684 673 671 671 669 671 670 668